CW7283 Weather Reports


time (UTC)temp
C
wind
direction
speed
KPH
gust
KPH
rain 1hr
cm
rain 24hr
cm
rain mn
cm
humidity
%
barometer
mb
20260505183330 6 279 1.6 11.3 0.00 0.00 0.00 46 1015.2
20260505181839 6 355 1.6 9.7 0.00 0.00 0.00 44 1015.3
20260505180328 5 360 0.0 9.7 0.00 0.00 0.00 45 1015.3
20260505174832 4 334 1.6 4.8 0.00 0.00 0.00 47 1015.4
20260505173343 5 34 0.0 4.8 0.00 0.00 0.00 46 1015.6
20260505171838 5 19 0.0 11.3 0.00 0.00 0.00 47 1015.6
20260505170335 5 18 3.2 16.1 0.00 0.00 0.00 45 1015.8
20260505164835 3 5 3.2 14.5 0.00 0.00 0.00 47 1015.8
20260505163334 3 360 4.8 11.3 0.00 0.00 0.00 48 1015.9
20260505161833 3 5 1.6 17.7 0.00 0.00 0.00 50 1015.9
20260505160326 3 346 4.8 19.3 0.00 0.00 0.00 49 1016.0
20260505153335 3 355 4.8 12.9 0.00 0.00 0.00 50 1016.1
20260505151823 2 17 4.8 16.1 0.00 0.00 0.00 49 1016.4
20260505150359 2 31 3.2 16.1 0.00 0.00 0.00 48 1016.4
20260505140332 2 346 0.0 4.8 0.00 0.00 0.00 58 1015.9
20260505124830 -1 5 0.0 0.0 0.00 0.00 0.00 75 1015.4
20260505123341 -1 288 0.0 1.6 0.00 0.00 0.00 76 1015.3
20260505121856 -1 244 0.0 0.0 0.00 0.00 0.00 77 1015.3
20260505120345 -1 223 0.0 3.2 0.00 0.00 0.00 77 1015.5
20260505114841 -1 311 0.0 0.0 0.00 0.00 0.00 77 1015.5
20260505113339 -1 325 0.0 3.2 0.00 0.00 0.00 78 1015.5
20260505111852 -1 302 0.0 1.6 0.00 0.00 0.00 78 1015.5
20260505110339 -1 315 0.0 1.6 0.00 0.00 0.00 77 1015.5
20260505101831 -1 308 0.0 0.0 0.00 0.00 0.00 75 1015.4
20260505100330 -1 313 0.0 0.0 0.00 0.00 0.00 75 1015.3
20260505094831 -1 10 0.0 4.8 0.00 0.00 0.00 74 1015.3
20260505093355 0 14 0.0 3.2 0.00 0.00 0.00 72 1015.3
20260505091849 0 355 0.0 3.2 0.00 0.00 0.00 70 1015.1
20260505090329 0 10 0.0 0.0 0.00 0.00 0.00 69 1014.8
20260505084831 0 9 0.0 3.2 0.00 0.00 0.00 69 1014.8
20260505083324 1 15 0.0 8.0 0.00 0.00 0.00 67 1014.7
20260505081827 2 24 1.6 6.4 0.00 0.00 0.00 61 1014.7
20260505080328 3 290 0.0 3.2 0.00 0.00 0.00 56 1014.2
20260505074900 4 333 0.0 3.2 0.00 0.00 0.00 55 1014.3
20260505073334 4 304 0.0 3.2 0.00 0.00 0.00 55 1014.3
20260505071835 5 299 0.0 3.2 0.00 0.00 0.00 55 1014.2
20260505070330 5 319 0.0 0.0 0.00 0.00 0.00 57 1014.4
20260505064854 5 311 0.0 1.6 0.00 0.00 0.00 57 1014.3
20260505063344 4 355 0.0 1.6 0.00 0.00 0.00 60 1014.4
20260505061841 4 292 0.0 0.0 0.00 0.00 0.00 61 1014.4
20260505060326 4 298 0.0 3.2 0.00 0.00 0.00 64 1014.4
20260505054829 4 355 0.0 4.8 0.00 0.00 0.00 63 1014.4
20260505053336 5 42 0.0 4.8 0.00 0.00 0.00 60 1014.2
20260505051836 5 20 0.0 1.6 0.00 0.00 0.00 60 1014.0
20260505050401 5 360 0.0 3.2 0.00 0.00 0.00 59 1013.7
20260505040335 6 299 0.0 3.2 0.00 0.00 0.00 60 1013.1
20260505034858 6 310 0.0 4.8 0.00 0.00 0.00 59 1013.0
20260505033336 6 312 0.0 4.8 0.00 0.00 0.00 59 1012.9
20260505031836 6 330 0.0 3.2 0.00 0.00 0.00 57 1012.6
20260505030323 6 355 0.0 3.2 0.00 0.00 0.00 57 1012.5
20260505024845 6 298 0.0 0.0 0.00 0.00 0.00 56 1012.4
20260505023340 6 14 0.0 3.2 0.00 0.00 0.00 55 1012.3
20260505021845 7 355 0.0 3.2 0.00 0.00 0.00 55 1012.3
20260505020340 7 302 0.0 3.2 0.00 0.00 0.00 54 1012.2
20260505014901 7 14 0.0 3.2 0.00 0.00 0.00 52 1012.1
20260505013340 7 355 0.0 4.8 0.00 0.00 0.00 51 1012.0
20260505011859 7 50 0.0 3.2 0.00 0.00 0.00 50 1012.2
20260505010400 8 15 0.0 6.4 0.00 0.00 0.00 49 1012.3
20260505004837 8 360 3.2 9.7 0.00 0.00 0.00 48 1012.3
20260505003333 8 32 0.0 8.0 0.00 0.00 0.00 48 1012.3
20260505001840 9 360 1.6 6.4 0.00 0.00 0.00 46 1012.3
20260505000332 10 334 1.6 11.3 0.00 0.00 0.00 46 1012.3
20260504234837 10 11 1.6 12.9 0.00 0.00 0.00 46 1012.1
20260504233339 9 305 3.2 11.3 0.00 0.00 0.00 49 1012.0
20260504231850 9 5 1.6 16.1 0.00 0.00 0.00 49 1012.0
20260504230336 9 321 0.0 9.7 0.00 0.00 0.00 49 1012.1
20260504223322 9 284 1.6 9.7 0.00 0.00 0.00 48 1012.1
20260504221833 10 18 1.6 12.9 0.00 0.00 0.00 48 1012.0
20260504220340 10 28 1.6 9.7 0.00 0.00 0.00 47 1012.2
20260504214849 10 5 0.0 6.4 0.00 0.00 0.00 51 1012.2
20260504213347 9 313 1.6 12.9 0.00 0.00 0.00 50 1012.4
20260504211825 9 17 1.6 8.0 0.00 0.00 0.00 49 1012.4
20260504210329 9 14 0.0 11.3 0.00 0.00 0.00 48 1012.5
20260504204849 8 289 1.6 8.0 0.00 0.00 0.00 51 1012.8
20260504203412 7 333 0.0 4.8 0.00 0.00 0.00 53 1013.0
20260504201842 7 323 1.6 11.3 0.00 0.00 0.00 50 1012.9
20260504200356 8 261 1.6 11.3 0.00 0.00 0.00 51 1013.0
20260504194847 8 15 0.0 12.9 0.00 0.00 0.00 51 1013.0
20260504193334 8 24 1.6 12.9 0.00 0.00 0.00 50 1013.0
20260504191837 8 13 1.6 9.7 0.00 0.00 0.00 50 1012.9
20260504190351 8 9 1.6 11.3 0.00 0.00 0.00 51 1013.0
20260504184847 8 332 3.2 17.7 0.00 0.00 0.00 54 1013.0